Temp
17 18 18 18 19 18 17 16 17 16 16 15 15 14 13 13 12 12 12 11 11 11
18 17 16 15 15 15 16 15 15 14 13 13 13 13 12 12 11 11 11 11 10 10
16 16 16 16 15 14 13 13 14 14 14 13 12 11 12 11 10 10 10 9 9 9
15 15 15 14 14 14 14 13 12 12 11 12 11 10 10 9 9 8 8 8 8 8
14 14 13 13 13 13 13 12 11 11 10 10 10 9 8 8 7 7 7 7 7 7
12 12 12 12 12 11 11 11 10 10 9 9 8 8 7 6 6 6 6 6 6 6
12 12 11 11 10 10 10 9 9 8 8 8 7 6 6 5 5 4 4 4 4 4
11 11 10 10 9 9 8 8 8 7 6 6 5 5 5 4 4 4 3 3 3 3
10 10 9 9 8 8 7 7 6 6 5 5 4 4 4 3 3 4 3 3 3 2
10 9 9 8 7 7 7 6 5 5 4 4 4 3 3 3 2 3 2 2 2 2
9 9 8 7 7 6 6 5 5 4 3 3 2 3 2 2 2 2 2 1 1 1
9 9 8 7 7 6 6 5 4 3 2 2 2 3 2 2 1 1 1 1 1 1
9 9 8 7 7 6 5 5 4 3 3 2 2 2 2 1 1 1 1 1 1 1
9 8 8 7 6 6 5 4 3 3 2 1 1 2 1 1 1 1 1 1 0 0
Height
777 780 781 783 783 787 791 794 797 801 802 802 804 805 809 810 810 808 808 809 810 810
775 777 779 782 784 788 787 790 794 797 801 803 802 804 806 808 808 807 805 805 806 806
775 776 777 779 781 786 789 792 794 793 794 799 800 802 800 804 807 804 804 804 803 803
775 777 778 780 781 783 787 792 795 793 796 794 797 798 798 801 803 801 801 801 801 801
775 777 778 780 781 784 786 788 791 792 794 793 794 796 797 799 800 799 800 800 799 798
774 776 778 780 781 783 786 788 790 792 792 791 793 795 796 797 797 797 797 798 797 796
772 774 777 779 781 783 785 787 789 789 789 791 792 794 795 796 795 796 796 796 793 794
772 773 775 777 780 782 784 786 787 788 789 790 791 793 794 794 794 794 793 792 792 791
770 771 773 775 778 781 783 784 785 787 788 789 791 791 791 791 790 790 789 790 789 790
767 769 771 773 776 778 780 782 783 785 786 787 787 788 788 788 787 787 787 788 788 788
763 765 768 770 773 776 778 779 781 782 783 784 785 785 786 786 786 785 785 786 787 787
759 762 764 766 769 772 774 776 777 779 779 780 782 782 783 783 783 783 783 784 784 785
757 759 761 763 765 768 771 773 774 775 776 777 778 779 780 780 780 781 781 782 782 783
752 756 759 761 762 765 767 769 770 771 772 773 774 774 775 777 777 778 778 779 780 781
Wind_Speed
15 19 22 24 25 24 21 15 15 15 11 10 10 8 9 11 11 11 12 14 15 16
15 15 15 14 14 16 16 16 17 13 8 8 7 8 10 12 13 13 13 13 14 14
11 12 13 14 14 12 12 13 14 12 12 9 9 10 10 13 15 14 14 14 14 14
10 10 10 11 12 13 13 11 9 7 9 7 8 10 11 13 15 15 15 14 14 14
12 12 12 12 12 11 11 10 8 7 8 7 8 10 11 13 14 14 15 15 14 13
13 12 12 12 11 10 9 8 8 9 7 7 8 9 10 12 12 13 13 12 11 11
13 12 12 11 11 10 9 8 8 7 7 7 7 9 10 12 12 12 12 10 10 11
13 13 13 13 12 10 8 7 7 6 7 7 8 9 9 10 12 14 14 13 13 11
15 15 14 14 13 11 9 7 7 7 8 9 9 9 10 11 12 13 13 12 10 6
18 17 16 14 13 11 10 8 8 8 10 10 10 9 9 9 10 10 11 11 9 7
19 19 17 16 14 13 12 10 8 8 9 9 10 9 8 9 10 10 10 10 10 8
22 20 19 19 18 16 14 12 10 8 9 11 11 10 11 10 11 10 10 10 10 8
20 20 21 20 18 17 15 13 11 10 13 13 13 13 12 12 12 12 11 11 10 9
18 19 19 18 17 17 16 14 13 14 14 15 15 15 14 13 15 14 13 14 13 11
Wind_Direction
247 244 240 232 227 220 222 224 224 227 229 234 243 251 274 278 276 270 272 275 273 272
245 243 240 233 227 222 213 211 203 206 226 243 249 266 278 283 281 281 279 274 274 272
252 242 230 219 210 208 202 200 204 207 219 241 265 269 280 283 285 285 286 284 281 278
220 210 198 193 185 183 188 195 213 225 240 246 262 277 283 282 286 289 287 283 281 278
196 191 190 187 186 192 200 210 224 240 251 261 274 281 282 284 288 289 287 286 281 277
192 194 194 195 194 195 202 214 225 236 253 272 280 279 285 290 292 290 286 280 280 281
203 206 205 199 199 201 206 217 229 246 264 271 272 282 290 294 295 287 279 279 290 288
210 205 203 200 200 205 214 226 241 249 248 254 266 272 282 293 300 295 275 279 288 280
211 206 205 204 204 209 220 230 235 242 251 256 260 269 272 281 283 297 269 269 270 238
211 209 208 206 209 217 224 232 243 251 251 256 265 270 277 282 281 279 266 261 231 225
216 213 209 209 215 220 222 229 241 269 263 264 271 274 267 274 277 267 263 249 230 235
221 218 215 214 215 221 224 232 242 277 265 259 266 265 256 258 273 256 245 232 229 239
226 224 222 222 219 223 230 238 242 261 265 255 258 257 252 248 262 243 235 231 236 241
222 226 230 226 223 225 227 229 241 264 262 257 251 252 248 242 251 242 240 240 242 235